owner,sensor,date,latitude,longitude,vertical_datum,wind_speed,wind_to_direction,wind_speed_of_gust,qcFlag 
TABS,ioos:station:wmo:42043:1,2003-01-01T03:39:00Z,28.9818,-94.9186,4.0,7.750161289,323.4996223,9.96,'11111222,11111222,11111222' 
TABS,ioos:station:wmo:42043:1,2003-01-01T04:09:00Z,28.9818,-94.9186,4.0,8.066039921,340.2169997,10.4,'11111222,11111222,11111222' 
TABS,ioos:station:wmo:42043:1,2003-01-01T04:39:00Z,28.9818,-94.9186,4.0,8.77097486,335.4802042,11.74,'11111222,11111222,11111222' 
TABS,ioos:station:wmo:42043:1,2003-01-01T06:39:00Z,28.9818,-94.9186,4.0,7.0843066,320.038983,10.07,'11111222,11111222,11111222' 
TABS,ioos:station:wmo:42043:1,2003-01-01T07:09:00Z,28.9818,-94.9186,4.0,6.407807737,329.8335308,8.88,'11111222,11111222,11111222' 
TABS,ioos:station:wmo:42043:1,2003-01-01T07:39:00Z,28.9818,-94.9186,4.0,6.886697322,344.9344265,9.01,'11111222,11111222,11111222' 
TABS,ioos:station:wmo:42043:1,2003-01-01T09:39:00Z,28.9818,-94.9186,4.0,4.092358733,15.15663753,5.44,'11111222,11111222,11111222' 
TABS,ioos:station:wmo:42043:1,2003-01-01T10:09:00Z,28.9818,-94.9186,4.0,4.016976475,21.00652985,5.59,'11111222,11111222,11111222' 
TABS,ioos:station:wmo:42043:1,2003-01-01T10:39:00Z,28.9818,-94.9186,4.0,3.712963776,30.7782228,5.36,'11111222,11111222,11111222' 
TABS,ioos:station:wmo:42043:1,2003-01-01T12:39:00Z,28.9818,-94.9186,4.0,3.161407914,80.71604799,4.0,'11111222,11111222,11111222' 
TABS,ioos:station:wmo:42043:1,2003-01-01T13:09:00Z,28.9818,-94.9186,4.0,2.972355968,99.68455038,4.43,'11111222,11111222,11111222' 
TABS,ioos:station:wmo:42043:1,2003-01-01T13:39:00Z,28.9818,-94.9186,4.0,3.397440213,106.9419237,4.59,'11111222,11111222,11111222' 
TABS,ioos:station:wmo:42043:1,2003-01-01T18:39:00Z,28.9818,-94.9186,4.0,1.469863939,120.2287287,3.22,'11111222,11111222,11111222' 
TABS,ioos:station:wmo:42043:1,2003-01-01T19:09:00Z,28.9818,-94.9186,4.0,0.898888202,69.14516981,2.16,'11111222,11111222,11111222' 
TABS,ioos:station:wmo:42043:1,2003-01-01T19:39:00Z,28.9818,-94.9186,4.0,1.034649699,20.3613452,1.93,'11111222,11111222,11111222' 
TABS,ioos:station:wmo:42043:1,2003-01-01T21:39:00Z,28.9818,-94.9186,4.0,2.992557435,40.66328967,4.15,'11111222,11111222,11111222' 
TABS,ioos:station:wmo:42043:1,2003-01-01T22:09:00Z,28.9818,-94.9186,4.0,2.448040032,52.80210005,3.74,'11111222,11111222,11111222' 
TABS,ioos:station:wmo:42043:1,2003-01-01T22:39:00Z,28.9818,-94.9186,4.0,2.537971631,32.93840306,3.91,'11111222,11111222,11111222' 
TABS,ioos:station:wmo:42043:1,2003-01-02T00:39:00Z,28.9818,-94.9186,4.0,2.241539649,82.0502385,4.0,'11111222,11111222,11111222' 
TABS,ioos:station:wmo:42043:1,2003-01-02T01:09:00Z,28.9818,-94.9186,4.0,2.365417511,86.12106365,3.93,'11111222,11111222,11111222' 
TABS,ioos:station:wmo:42043:1,2003-01-02T01:39:00Z,28.9818,-94.9186,4.0,2.474206944,104.9914706,4.02,'11111222,11111222,11111222' 
TABS,ioos:station:wmo:42043:1,2003-01-02T03:39:00Z,28.9818,-94.9186,4.0,0.955196315,160.4271304,3.1,'11111222,11111222,11111222' 
TABS,ioos:station:wmo:42043:1,2003-01-02T04:09:00Z,28.9818,-94.9186,4.0,1.362130684,212.4068047,3.1,'11111222,11111222,11111222' 
TABS,ioos:station:wmo:42043:1,2003-01-02T04:39:00Z,28.9818,-94.9186,4.0,1.824828759,226.332322,3.85,'11111222,11111222,11111222' 
TABS,ioos:station:wmo:42043:1,2003-01-02T06:39:00Z,28.9818,-94.9186,4.0,4.891676604,275.3958998,7.95,'11111222,11111222,11111222' 
TABS,ioos:station:wmo:42043:1,2003-01-02T07:09:00Z,28.9818,-94.9186,4.0,12.12300293,325.0775444,18.97,'11111222,11111222,11111222' 
TABS,ioos:station:wmo:42043:1,2003-01-02T07:39:00Z,28.9818,-94.9186,4.0,9.885949626,329.7517668,15.23,'11111222,11111222,11111222' 
TABS,ioos:station:wmo:42043:1,2003-01-02T09:39:00Z,28.9818,-94.9186,4.0,11.81431759,324.2648772,17.87,'11111222,11111222,11111222' 
TABS,ioos:station:wmo:42043:1,2003-01-02T10:09:00Z,28.9818,-94.9186,4.0,11.84663665,327.7586558,17.21,'11111222,11111222,11111222' 
TABS,ioos:station:wmo:42043:1,2003-01-02T10:39:00Z,28.9818,-94.9186,4.0,10.703406,325.7753143,15.87,'11111222,11111222,11111222' 
TABS,ioos:station:wmo:42043:1,2003-01-02T12:39:00Z,28.9818,-94.9186,4.0,10.9900182,323.0257095,16.14,'11111222,11111222,11111222' 
TABS,ioos:station:wmo:42043:1,2003-01-02T13:09:00Z,28.9818,-94.9186,4.0,10.86222813,324.2905046,15.72,'11111222,11111222,11111222' 
TABS,ioos:station:wmo:42043:1,2003-01-02T13:39:00Z,28.9818,-94.9186,4.0,10.32017442,322.7968676,15.16,'11111222,11111222,11111222' 
TABS,ioos:station:wmo:42043:1,2003-01-02T15:39:00Z,28.9818,-94.9186,4.0,9.166471513,331.9531059,14.11,'11111222,11111222,11111222' 
TABS,ioos:station:wmo:42043:1,2003-01-02T16:09:00Z,28.9818,-94.9186,4.0,8.765124072,327.9598363,14.15,'11111222,11111222,11111222' 
TABS,ioos:station:wmo:42043:1,2003-01-02T16:39:00Z,28.9818,-94.9186,4.0,8.724316592,329.4077842,13.52,'11111222,11111222,11111222' 
TABS,ioos:station:wmo:42043:1,2003-01-02T21:39:00Z,28.9818,-94.9186,4.0,11.10245468,328.1421782,14.78,'11111222,11111222,11111222' 
TABS,ioos:station:wmo:42043:1,2003-01-02T22:09:00Z,28.9818,-94.9186,4.0,10.52407716,335.9433841,14.15,'11111222,11111222,11111222' 
TABS,ioos:station:wmo:42043:1,2003-01-02T22:39:00Z,28.9818,-94.9186,4.0,10.92604686,332.8250459,14.79,'11111222,11111222,11111222' 
TABS,ioos:station:wmo:42043:1,2003-01-03T00:39:00Z,28.9818,-94.9186,4.0,12.10732423,329.8558342,15.64,'11111222,11111222,11111222' 
TABS,ioos:station:wmo:42043:1,2003-01-03T01:09:00Z,28.9818,-94.9186,4.0,12.45065862,333.7846618,16.04,'11111222,11111222,11111222' 
TABS,ioos:station:wmo:42043:1,2003-01-03T01:39:00Z,28.9818,-94.9186,4.0,12.01879362,334.5221571,16.05,'11111222,11111222,11111222' 
TABS,ioos:station:wmo:42043:1,2003-01-03T03:39:00Z,28.9818,-94.9186,4.0,9.185777049,349.7786511,13.91,'11111222,11111222,11111222' 
TABS,ioos:station:wmo:42043:1,2003-01-03T04:09:00Z,28.9818,-94.9186,4.0,9.284406282,348.2541836,13.04,'11111222,11111222,11111222' 
TABS,ioos:station:wmo:42043:1,2003-01-03T04:39:00Z,28.9818,-94.9186,4.0,9.097219355,349.6780675,12.77,'11111222,11111222,11111222' 
TABS,ioos:station:wmo:42043:1,2003-01-03T06:39:00Z,28.9818,-94.9186,4.0,8.351598649,356.9797975,10.86,'11111222,11111222,11111222' 
TABS,ioos:station:wmo:42043:1,2003-01-03T07:09:00Z,28.9818,-94.9186,4.0,7.231355336,358.8904689,10.84,'11111222,11111222,11111222' 
TABS,ioos:station:wmo:42043:1,2003-01-03T07:39:00Z,28.9818,-94.9186,4.0,6.870029112,359.8329905,9.21,'11111222,11144222,11111222' 
TABS,ioos:station:wmo:42043:1,2003-01-03T09:39:00Z,28.9818,-94.9186,4.0,5.750556495,0.796894919,8.09,'11111222,11111222,11111222' 
TABS,ioos:station:wmo:42043:1,2003-01-03T10:09:00Z,28.9818,-94.9186,4.0,5.191627876,1.434640555,7.77,'11111222,11111222,11111222' 
TABS,ioos:station:wmo:42043:1,2003-01-03T10:39:00Z,28.9818,-94.9186,4.0,4.870913672,352.5683989,6.7,'11111222,11111222,11111222' 
TABS,ioos:station:wmo:42043:1,2003-01-03T12:39:00Z,28.9818,-94.9186,4.0,5.154046954,14.49435557,7.37,'11111222,11111222,11111222' 
TABS,ioos:station:wmo:42043:1,2003-01-03T13:09:00Z,28.9818,-94.9186,4.0,5.343715936,16.63737549,7.28,'11111222,11111222,11111222' 
TABS,ioos:station:wmo:42043:1,2003-01-03T13:39:00Z,28.9818,-94.9186,4.0,4.840216937,6.405327653,6.8,'11111222,11111222,11111222' 
TABS,ioos:station:wmo:42043:1,2003-01-03T20:09:00Z,28.9818,-94.9186,4.0,3.972266356,37.53311604,5.12,'11111222,11111222,11111222' 
TABS,ioos:station:wmo:42043:1,2003-01-03T20:39:00Z,28.9818,-94.9186,4.0,3.444444803,29.76523349,4.88,'11111222,11111222,11111222' 
TABS,ioos:station:wmo:42043:1,2003-01-03T21:09:00Z,28.9818,-94.9186,4.0,3.335416016,40.13518125,4.68,'11111222,11111222,11111222' 
TABS,ioos:station:wmo:42043:1,2003-01-03T21:39:00Z,28.9818,-94.9186,4.0,2.905116177,60.96419894,4.81,'11111222,11111222,11111222' 
TABS,ioos:station:wmo:42043:1,2003-01-03T22:09:00Z,28.9818,-94.9186,4.0,3.529447549,59.14725662,4.96,'11111222,11111222,11111222' 
TABS,ioos:station:wmo:42043:1,2003-01-03T22:39:00Z,28.9818,-94.9186,4.0,4.015420277,49.64600894,5.64,'11111222,11111222,11111222' 
TABS,ioos:station:wmo:42043:1,2003-01-03T23:09:00Z,28.9818,-94.9186,4.0,2.983186216,62.66153228,4.39,'11111222,11111222,11111222' 
TABS,ioos:station:wmo:42043:1,2003-01-03T23:39:00Z,28.9818,-94.9186,4.0,3.677662301,61.76219958,4.73,'11111222,11111222,11111222' 
TABS,ioos:station:wmo:42043:1,2003-01-04T00:09:00Z,28.9818,-94.9186,4.0,2.394368393,74.74449605,3.83,'11111222,11111222,11111222' 
TABS,ioos:station:wmo:42043:1,2003-01-04T00:39:00Z,28.9818,-94.9186,4.0,2.787059382,79.45571978,4.2,'11111222,11111222,11111222' 
TABS,ioos:station:wmo:42043:1,2003-01-04T01:09:00Z,28.9818,-94.9186,4.0,2.130023474,112.3512413,3.11,'11111222,11111222,11111222' 
TABS,ioos:station:wmo:42043:1,2003-01-04T01:39:00Z,28.9818,-94.9186,4.0,1.650242406,123.8829993,2.86,'11111222,11111222,11111222' 
TABS,ioos:station:wmo:42043:1,2003-01-04T02:09:00Z,28.9818,-94.9186,4.0,1.273184983,122.8166876,2.59,'11111222,11111222,11111222' 
TABS,ioos:station:wmo:42043:1,2003-01-04T02:39:00Z,28.9818,-94.9186,4.0,1.328231907,153.6281353,3.13,'11111222,11111222,11111222' 
TABS,ioos:station:wmo:42043:1,2003-01-04T03:09:00Z,28.9818,-94.9186,4.0,1.178855377,169.7388597,3.16,'11111222,11111222,11111222' 
TABS,ioos:station:wmo:42043:1,2003-01-04T03:39:00Z,28.9818,-94.9186,4.0,1.203536456,171.3988457,3.41,'11111222,11111222,11111222' 
TABS,ioos:station:wmo:42043:1,2003-01-04T04:09:00Z,28.9818,-94.9186,4.0,1.969568481,212.5605723,3.63,'11111222,11111222,11111222' 
TABS,ioos:station:wmo:42043:1,2003-01-04T04:39:00Z,28.9818,-94.9186,4.0,2.426211038,216.1143111,4.42,'11111222,11111222,11111222' 
TABS,ioos:station:wmo:42043:1,2003-01-04T05:09:00Z,28.9818,-94.9186,4.0,1.933494246,219.1227264,4.19,'11111222,11111222,11111222' 
TABS,ioos:station:wmo:42043:1,2003-01-04T05:39:00Z,28.9818,-94.9186,4.0,1.423938201,209.4455703,3.25,'11111222,11111222,11111222' 
TABS,ioos:station:wmo:42043:1,2003-01-04T06:09:00Z,28.9818,-94.9186,4.0,1.606549097,208.639066,3.4,'11111222,11111222,11111222' 
TABS,ioos:station:wmo:42043:1,2003-01-04T06:39:00Z,28.9818,-94.9186,4.0,1.887882412,205.0720492,3.69,'11111222,11111222,11111222' 
TABS,ioos:station:wmo:42043:1,2003-01-04T07:09:00Z,28.9818,-94.9186,4.0,2.169446934,205.3840134,4.42,'11111222,11111222,11111222' 
TABS,ioos:station:wmo:42043:1,2003-01-04T07:39:00Z,28.9818,-94.9186,4.0,2.304365422,191.2613542,4.36,'11111222,11111222,11111222' 
TABS,ioos:station:wmo:42043:1,2003-01-04T08:09:00Z,28.9818,-94.9186,4.0,2.304365422,191.2613542,3.89,'11111222,11111222,11111222' 
TABS,ioos:station:wmo:42043:1,2003-01-04T08:39:00Z,28.9818,-94.9186,4.0,2.476307735,197.6302495,4.15,'11111222,11111222,11111222' 
TABS,ioos:station:wmo:42043:1,2003-01-04T09:09:00Z,28.9818,-94.9186,4.0,2.086264605,187.1592741,3.99,'11111222,11111222,11111222' 
TABS,ioos:station:wmo:42043:1,2003-01-04T09:39:00Z,28.9818,-94.9186,4.0,1.957804893,192.6877022,3.79,'11111222,11111222,11111222' 
TABS,ioos:station:wmo:42043:1,2003-01-04T10:09:00Z,28.9818,-94.9186,4.0,1.838722383,200.7020905,3.72,'11111222,11111222,11111222' 
TABS,ioos:station:wmo:42043:1,2003-01-04T10:39:00Z,28.9818,-94.9186,4.0,1.918462926,202.6889427,3.81,'11111222,11111222,11111222' 
TABS,ioos:station:wmo:42043:1,2003-01-04T11:09:00Z,28.9818,-94.9186,4.0,2.316980794,186.9411777,4.57,'11111222,11111222,11111222' 
TABS,ioos:station:wmo:42043:1,2003-01-04T11:39:00Z,28.9818,-94.9186,4.0,1.928548677,192.8834568,3.77,'11111222,11111222,11111222' 
TABS,ioos:station:wmo:42043:1,2003-01-04T12:09:00Z,28.9818,-94.9186,4.0,2.683151133,177.2231208,4.89,'11111222,11111222,11111222' 
TABS,ioos:station:wmo:42043:1,2003-01-04T12:39:00Z,28.9818,-94.9186,4.0,2.455890877,183.9694646,4.35,'11111222,11111222,11111222' 
TABS,ioos:station:wmo:42043:1,2003-01-04T13:09:00Z,28.9818,-94.9186,4.0,2.432488438,182.5920711,4.28,'11111222,11111222,11111222' 
TABS,ioos:station:wmo:42043:1,2003-01-04T13:39:00Z,28.9818,-94.9186,4.0,2.170368632,181.0562318,3.69,'11111222,11111222,11111222' 
TABS,ioos:station:wmo:42043:1,2003-01-04T14:09:00Z,28.9818,-94.9186,4.0,1.880026596,180.3049717,3.28,'11111222,11111222,11111222' 
TABS,ioos:station:wmo:42043:1,2003-01-04T14:39:00Z,28.9818,-94.9186,4.0,2.017176244,170.5846061,3.54,'11111222,11111222,11111222' 
TABS,ioos:station:wmo:42043:1,2003-01-04T15:09:00Z,28.9818,-94.9186,4.0,1.647938106,156.3907961,3.24,'11111222,11111222,11111222' 
TABS,ioos:station:wmo:42043:1,2003-01-04T15:39:00Z,28.9818,-94.9186,4.0,1.411559421,157.0681636,2.75,'11111222,11111222,11111222' 
TABS,ioos:station:wmo:42043:1,2003-01-04T16:09:00Z,28.9818,-94.9186,4.0,1.982826266,171.298007,3.75,'11111222,11111222,11111222' 
TABS,ioos:station:wmo:42043:1,2003-01-04T16:39:00Z,28.9818,-94.9186,4.0,1.736663468,187.9436637,3.39,'11111222,11111222,11111222' 
TABS,ioos:station:wmo:42043:1,2003-01-04T17:09:00Z,28.9818,-94.9186,4.0,1.915254552,189.3149684,3.53,'11111222,11111222,11111222' 
TABS,ioos:station:wmo:42043:1,2003-01-04T17:39:00Z,28.9818,-94.9186,4.0,1.580790941,181.8127589,3.41,'11111222,11111222,11111222' 
TABS,ioos:station:wmo:42043:1,2003-01-04T18:09:00Z,28.9818,-94.9186,4.0,1.628066338,192.4144741,3.11,'11111222,11111222,11111222' 
TABS,ioos:station:wmo:42043:1,2003-01-04T18:39:00Z,28.9818,-94.9186,4.0,2.078677464,200.2658605,3.26,'11111222,11111222,11111222' 
TABS,ioos:station:wmo:42043:1,2003-01-04T19:09:00Z,28.9818,-94.9186,4.0,2.340299126,199.2093345,3.78,'11111222,11111222,11111222' 
TABS,ioos:station:wmo:42043:1,2003-01-04T19:39:00Z,28.9818,-94.9186,4.0,1.719592975,193.7939868,3.12,'11111222,11111222,11111222' 
TABS,ioos:station:wmo:42043:1,2003-01-04T20:09:00Z,28.9818,-94.9186,4.0,1.954942454,196.9520651,3.78,'11111222,11111222,11111222' 
TABS,ioos:station:wmo:42043:1,2003-01-04T20:39:00Z,28.9818,-94.9186,4.0,1.772004515,196.3897125,3.4,'11111222,11111222,11111222' 
TABS,ioos:station:wmo:42043:1,2003-01-04T21:09:00Z,28.9818,-94.9186,4.0,2.010198995,191.4778106,3.5,'11111222,11111222,11111222' 
TABS,ioos:station:wmo:42043:1,2003-01-04T21:39:00Z,28.9818,-94.9186,4.0,2.060873601,178.3318769,3.62,'11111222,11111222,11111222' 
TABS,ioos:station:wmo:42043:1,2003-01-04T22:09:00Z,28.9818,-94.9186,4.0,2.290589444,174.4887459,3.81,'11111222,11111222,11111222' 
TABS,ioos:station:wmo:42043:1,2003-01-04T22:39:00Z,28.9818,-94.9186,4.0,2.020618717,181.41813,3.43,'11111222,11111222,11111222' 
TABS,ioos:station:wmo:42043:1,2003-01-04T23:09:00Z,28.9818,-94.9186,4.0,1.457154762,168.9216449,3.0,'11111222,11111222,11111222' 
TABS,ioos:station:wmo:42043:1,2003-01-04T23:39:00Z,28.9818,-94.9186,4.0,2.267355288,172.9065541,3.74,'11111222,11111222,11111222' 
TABS,ioos:station:wmo:42043:1,2003-01-05T00:09:00Z,28.9818,-94.9186,4.0,2.674696244,173.9912186,4.24,'11111222,11111222,11111222' 
TABS,ioos:station:wmo:42043:1,2003-01-05T00:39:00Z,28.9818,-94.9186,4.0,3.186989175,169.1486598,5.18,'11111222,11111222,11111222' 
TABS,ioos:station:wmo:42043:1,2003-01-05T01:09:00Z,28.9818,-94.9186,4.0,3.201780755,171.9207416,5.05,'11111222,11111222,11111222' 
TABS,ioos:station:wmo:42043:1,2003-01-05T01:39:00Z,28.9818,-94.9186,4.0,3.313080138,156.1431326,5.84,'11111222,11111222,11111222' 
TABS,ioos:station:wmo:42043:1,2003-01-05T02:09:00Z,28.9818,-94.9186,4.0,3.010016611,154.2013879,5.65,'11111222,11111222,11111222' 
TABS,ioos:station:wmo:42043:1,2003-01-05T02:39:00Z,28.9818,-94.9186,4.0,2.758785965,175.4262999,4.6,'11111222,11111222,11111222' 
TABS,ioos:station:wmo:42043:1,2003-01-05T03:09:00Z,28.9818,-94.9186,4.0,3.021208368,175.0633391,5.77,'11111222,11111222,11111222' 
TABS,ioos:station:wmo:42043:1,2003-01-05T03:39:00Z,28.9818,-94.9186,4.0,2.781258708,185.1573254,5.02,'11111222,11111222,11111222' 
TABS,ioos:station:wmo:42043:1,2003-01-05T04:09:00Z,28.9818,-94.9186,4.0,2.584143959,185.997597,4.51,'11111222,11111222,11111222' 
TABS,ioos:station:wmo:42043:1,2003-01-05T04:39:00Z,28.9818,-94.9186,4.0,2.271915491,206.114062,3.83,'11111222,11111222,11111222' 
TABS,ioos:station:wmo:42043:1,2003-01-05T05:09:00Z,28.9818,-94.9186,4.0,2.053216988,212.064678,3.7,'11111222,11111222,11111222' 
TABS,ioos:station:wmo:42043:1,2003-01-05T05:39:00Z,28.9818,-94.9186,4.0,2.322283359,204.6891343,4.63,'11111222,11111222,11111222' 
TABS,ioos:station:wmo:42043:1,2003-01-05T06:09:00Z,28.9818,-94.9186,4.0,1.01651365,195.4035994,2.61,'11111222,11111222,11111222' 
TABS,ioos:station:wmo:42043:1,2003-01-05T06:39:00Z,28.9818,-94.9186,4.0,1.051189802,214.1437173,2.84,'11111222,11111222,11111222' 
TABS,ioos:station:wmo:42043:1,2003-01-05T07:09:00Z,28.9818,-94.9186,4.0,1.286895489,230.9926187,2.7,'11111222,11111222,11111222' 
TABS,ioos:station:wmo:42043:1,2003-01-05T07:39:00Z,28.9818,-94.9186,4.0,0.610982815,291.1047892,3.64,'11111222,11111222,11111222' 
TABS,ioos:station:wmo:42043:1,2003-01-05T08:09:00Z,28.9818,-94.9186,4.0,0.211896201,19.28979065,1.91,'11111222,11111222,11111222' 
TABS,ioos:station:wmo:42043:1,2003-01-05T08:39:00Z,28.9818,-94.9186,4.0,0.581377674,63.43459003,2.08,'11111222,11111222,11111222' 
TABS,ioos:station:wmo:42043:1,2003-01-05T09:09:00Z,28.9818,-94.9186,4.0,0.967677632,108.0608506,2.37,'11111222,11111222,11111222' 
TABS,ioos:station:wmo:42043:1,2003-01-05T09:39:00Z,28.9818,-94.9186,4.0,1.575436447,123.0851965,3.32,'11111222,11111222,11111222' 
TABS,ioos:station:wmo:42043:1,2003-01-05T10:09:00Z,28.9818,-94.9186,4.0,1.670927886,132.0894847,3.25,'11111222,11111222,11111222' 
TABS,ioos:station:wmo:42043:1,2003-01-05T10:39:00Z,28.9818,-94.9186,4.0,1.826280373,125.8662493,3.07,'11111222,11111222,11111222' 
TABS,ioos:station:wmo:42043:1,2003-01-05T11:09:00Z,28.9818,-94.9186,4.0,1.840244549,111.6861476,2.93,'11111222,11111222,11111222' 
TABS,ioos:station:wmo:42043:1,2003-01-05T11:39:00Z,28.9818,-94.9186,4.0,2.084706214,118.0405083,3.69,'11111222,11111222,11111222' 
TABS,ioos:station:wmo:42043:1,2003-01-05T12:09:00Z,28.9818,-94.9186,4.0,2.102379604,124.1439277,3.32,'11111222,11111222,11111222' 
TABS,ioos:station:wmo:42043:1,2003-01-05T12:39:00Z,28.9818,-94.9186,4.0,1.973626104,109.5370302,3.01,'11111222,11111222,11111222' 
TABS,ioos:station:wmo:42043:1,2003-01-05T13:09:00Z,28.9818,-94.9186,4.0,2.215513484,114.2516929,3.46,'11111222,11111222,11111222' 
TABS,ioos:station:wmo:42043:1,2003-01-05T13:39:00Z,28.9818,-94.9186,4.0,2.448836458,128.3678166,3.65,'11111222,11111222,11111222' 
TABS,ioos:station:wmo:42043:1,2003-01-05T14:09:00Z,28.9818,-94.9186,4.0,2.545152255,121.504614,3.62,'11111222,11111222,11111222' 
TABS,ioos:station:wmo:42043:1,2003-01-05T14:39:00Z,28.9818,-94.9186,4.0,2.705734651,117.0389169,3.79,'11111222,11111222,11111222' 
TABS,ioos:station:wmo:42043:1,2003-01-05T15:09:00Z,28.9818,-94.9186,4.0,2.842709975,134.4302286,3.8,'11111222,11111222,11111222' 
TABS,ioos:station:wmo:42043:1,2003-01-05T15:39:00Z,28.9818,-94.9186,4.0,2.612833711,141.682961,3.49,'11111222,11111222,11111222' 
TABS,ioos:station:wmo:42043:1,2003-01-05T16:09:00Z,28.9818,-94.9186,4.0,1.919270695,146.4758156,2.88,'11111222,11111222,11111222' 
TABS,ioos:station:wmo:42043:1,2003-01-05T16:39:00Z,28.9818,-94.9186,4.0,2.286000875,154.8925262,3.44,'11111222,11111222,11111222' 
TABS,ioos:station:wmo:42043:1,2003-01-05T17:09:00Z,28.9818,-94.9186,4.0,2.357710754,169.7388597,3.52,'11111222,11111222,11111222' 
TABS,ioos:station:wmo:42043:1,2003-01-05T17:39:00Z,28.9818,-94.9186,4.0,2.781150841,181.6485511,3.77,'11111222,11111222,11111222' 
TABS,ioos:station:wmo:42043:1,2003-01-05T18:09:00Z,28.9818,-94.9186,4.0,2.532212471,194.6400885,3.81,'11111222,11111222,11111222' 
TABS,ioos:station:wmo:42043:1,2003-01-05T18:39:00Z,28.9818,-94.9186,4.0,2.234860175,218.4597347,3.61,'11111222,11111222,11111222' 
TABS,ioos:station:wmo:42043:1,2003-01-05T19:09:00Z,28.9818,-94.9186,4.0,1.609627286,220.7172368,3.04,'11111222,11111222,11111222' 
TABS,ioos:station:wmo:42043:1,2003-01-05T19:39:00Z,28.9818,-94.9186,4.0,1.630030675,216.5185193,3.31,'11111222,11111222,11111222' 
TABS,ioos:station:wmo:42043:1,2003-01-05T20:09:00Z,28.9818,-94.9186,4.0,1.735280957,205.9745437,3.99,'11111222,11111222,11111222' 
TABS,ioos:station:wmo:42043:1,2003-01-05T20:39:00Z,28.9818,-94.9186,4.0,1.434050208,195.7809269,3.69,'11111222,11111222,11111222' 
TABS,ioos:station:wmo:42043:1,2003-01-05T21:09:00Z,28.9818,-94.9186,4.0,1.271416533,177.2953408,2.46,'11111222,11111222,11111222' 
TABS,ioos:station:wmo:42043:1,2003-01-05T21:39:00Z,28.9818,-94.9186,4.0,1.123610253,163.9848083,2.57,'11111222,11111222,11111222' 
TABS,ioos:station:wmo:42043:1,2003-01-05T22:09:00Z,28.9818,-94.9186,4.0,0.481040539,136.6849961,1.93,'11111222,11111222,11111222' 
TABS,ioos:station:wmo:42043:1,2003-01-05T22:39:00Z,28.9818,-94.9186,4.0,1.204865138,161.1141673,2.6,'11111222,11111222,11111222' 
TABS,ioos:station:wmo:42043:1,2003-01-05T23:09:00Z,28.9818,-94.9186,4.0,1.082450923,136.8720563,2.43,'11111222,11111222,11111222' 
TABS,ioos:station:wmo:42043:1,2003-01-05T23:39:00Z,28.9818,-94.9186,4.0,1.032763284,136.5696668,2.45,'11111222,11111222,11111222' 
TABS,ioos:station:wmo:42043:1,2003-01-06T00:09:00Z,28.9818,-94.9186,4.0,1.325481045,138.9770374,2.67,'11111222,11111222,11111222' 
TABS,ioos:station:wmo:42043:1,2003-01-06T00:39:00Z,28.9818,-94.9186,4.0,1.038556691,141.2543338,2.46,'11111222,11111222,11111222' 
TABS,ioos:station:wmo:42043:1,2003-01-06T01:09:00Z,28.9818,-94.9186,4.0,1.140175425,142.1253154,2.4,'11111222,11111222,11111222' 
TABS,ioos:station:wmo:42043:1,2003-01-06T01:39:00Z,28.9818,-94.9186,4.0,1.681814496,152.3686704,3.11,'11111222,11111222,11111222' 
TABS,ioos:station:wmo:42043:1,2003-01-06T02:09:00Z,28.9818,-94.9186,4.0,1.695435047,112.1783062,3.35,'11111222,11111222,11111222' 
TABS,ioos:station:wmo:42043:1,2003-01-06T02:39:00Z,28.9818,-94.9186,4.0,1.633676835,124.2740463,3.22,'11111222,11111222,11111222' 
TABS,ioos:station:wmo:42043:1,2003-01-06T03:09:00Z,28.9818,-94.9186,4.0,1.884887265,109.2043495,2.9,'11111222,11111222,11111222' 
TABS,ioos:station:wmo:42043:1,2003-01-06T03:39:00Z,28.9818,-94.9186,4.0,1.83,100.3892544,2.91,'11111222,11111222,11111222' 
TABS,ioos:station:wmo:42043:1,2003-01-06T04:09:00Z,28.9818,-94.9186,4.0,2.293665189,83.74215942,3.25,'11111222,11111222,11111222' 
TABS,ioos:station:wmo:42043:1,2003-01-06T04:39:00Z,28.9818,-94.9186,4.0,2.313655117,93.2214536,3.28,'11111222,11111222,11111222' 
TABS,ioos:station:wmo:42043:1,2003-01-06T05:09:00Z,28.9818,-94.9186,4.0,2.486523678,85.84830352,3.09,'11111222,11111222,11111222' 
TABS,ioos:station:wmo:42043:1,2003-01-06T05:39:00Z,28.9818,-94.9186,4.0,2.920222594,69.76507717,4.11,'11111222,11111222,11111222' 
TABS,ioos:station:wmo:42043:1,2003-01-06T06:09:00Z,28.9818,-94.9186,4.0,3.08661627,72.26909253,4.67,'11111222,11111222,11111222' 
TABS,ioos:station:wmo:42043:1,2003-01-06T06:39:00Z,28.9818,-94.9186,4.0,2.821435805,81.43870953,4.25,'11111222,11111222,11111222' 
TABS,ioos:station:wmo:42043:1,2003-01-06T07:09:00Z,28.9818,-94.9186,4.0,2.963865719,75.54139504,4.03,'11111222,11111222,11111222' 
TABS,ioos:station:wmo:42043:1,2003-01-06T07:39:00Z,28.9818,-94.9186,4.0,3.133448579,80.44709705,4.23,'11111222,11111222,11111222' 
TABS,ioos:station:wmo:42043:1,2003-01-06T08:09:00Z,28.9818,-94.9186,4.0,3.664600933,81.05135803,4.53,'11111222,11111222,11111222' 
TABS,ioos:station:wmo:42043:1,2003-01-06T08:39:00Z,28.9818,-94.9186,4.0,3.819031291,82.93040495,4.49,'11111222,11111222,11111222' 
TABS,ioos:station:wmo:42043:1,2003-01-06T09:09:00Z,28.9818,-94.9186,4.0,3.68126337,74.07559944,4.49,'11111222,11111222,11111222' 
TABS,ioos:station:wmo:42043:1,2003-01-06T09:39:00Z,28.9818,-94.9186,4.0,4.274400543,69.74166721,5.29,'11111222,11111222,11111222' 
TABS,ioos:station:wmo:42043:1,2003-01-06T10:09:00Z,28.9818,-94.9186,4.0,4.716661955,68.22077792,5.6,'11111222,11111222,11111222' 
TABS,ioos:station:wmo:42043:1,2003-01-06T10:39:00Z,28.9818,-94.9186,4.0,4.746725187,79.68396047,5.6,'11111222,11111222,11111222' 
TABS,ioos:station:wmo:42043:1,2003-01-06T11:09:00Z,28.9818,-94.9186,4.0,4.442938217,83.018538,5.22,'11111222,11111222,11111222' 
TABS,ioos:station:wmo:42043:1,2003-01-06T11:39:00Z,28.9818,-94.9186,4.0,4.582139238,82.22316807,5.46,'11111222,11111222,11111222' 